Change the Weather History Date:

Monday, March 25, 2013

  Actual Average Record
Temperature  
Mean Temperature 78 °F -  
Max Temperature 87 °F - - ()
Min Temperature 70 °F - - ()
Cooling Degree Days 14    
Growing Degree Days 28 (Base 50)    
Moisture  
Dew Point 45 °F    
Average Humidity 33    
Maximum Humidity 60    
Minimum Humidity 9    
Precipitation  
Precipitation 0.00 in - - ()
Sea Level Pressure  
Sea Level Pressure 29.91 in    
Wind  
Wind Speed 6 mph ()    
Max Wind Speed 15 mph    
Max Gust Speed 25 mph    
Visibility 2.5 miles    
Events      
T = Trace of Precipitation, MM = Missing Value Source: Averaged Metar Reports

Daily Weather History Graph

Daily Weather History Graph

Search for Another Location

Airport or City:

Trip Planner

Search our weather history database for the weather conditions in past years. The results will help you decide how hot, cold, wet, or windy it might be!

Date:

Astronomy

Mar. 25, 2013 Rise Set
Actual Time 6:25 AM IST 6:40 PM IST
Civil Twilight 6:02 AM IST 7:03 PM IST
Nautical Twilight 5:35 AM IST 7:30 PM IST
Astronomical Twilight 5:07 AM IST 7:58 PM IST
Moon 4:50 PM IST (3/25) 4:43 AM IST (3/25)
Length of Visible Light 13h 01m
Length of Day
12h 15m
Waxing Gibbous, 95% of the Moon is Illuminated
Mar 25
Waxing Gibbous
Mar 27
Full
Apr 3
Last Quarter
Apr 10
New
Apr 18
First Quarter

Hourly Weather History & Observations

Time (IST) Temp. Dew Point Humidity Pressure Visibility Wind Dir Wind Speed Gust Speed Precip Events Conditions
12:00 AM 78.8 °F 42.8 °F 28% 29.95 in 2.5 mi Variable 5.8 mph - N/A   Haze
1:00 AM 77.0 °F 42.8 °F 29% 29.95 in 2.5 mi Variable 8.1 mph - N/A   Haze
2:00 AM 75.2 °F 50.0 °F 41% 29.95 in 2.5 mi NNE 12.7 mph - N/A   Haze
3:00 AM 73.4 °F 55.4 °F 53% 29.92 in 2.5 mi NE 15.0 mph - N/A   Haze
4:00 AM 71.6 °F 57.2 °F 60% 29.92 in 2.5 mi NE 12.7 mph - N/A   Haze
5:00 AM 71.6 °F 57.2 °F 60% 29.92 in 2.5 mi Variable 8.1 mph - N/A   Haze
5:30 AM 71 °F 57 °F 51% 29.88 in 2 mi NE 5.8 mph - -   Haze
5:30 AM 71.6 °F 55.4 °F 57% 29.92 in 2.5 mi NE 5.8 mph - N/A   Haze
6:00 AM 69.8 °F 53.6 °F 56% 29.95 in 2.5 mi Variable 4.6 mph - N/A   Haze
6:30 AM 69.8 °F 53.6 °F 56% 29.95 in 2.5 mi Variable 2.3 mph - N/A   Haze
7:00 AM 69.8 °F 53.6 °F 56% 29.98 in 2.5 mi Calm Calm - N/A   Haze
7:30 AM 71.6 °F 53.6 °F 53% 29.98 in 2.5 mi Calm Calm - N/A   Haze
8:00 AM 73.4 °F 53.6 °F 50% 29.98 in 2.5 mi Variable 4.6 mph - N/A   Haze
8:30 AM 75 °F 51 °F 32% 29.92 in 2 mi 3.5 mph - -   Haze
9:00 AM 77.0 °F 50.0 °F 39% 30.01 in 2.5 mi Variable 8.1 mph - N/A   Haze
10:00 AM 80.6 °F 46.4 °F 30% 30.01 in 2.5 mi Variable 6.9 mph - N/A   Haze
11:30 AM 83 °F 39 °F 12% 29.91 in 2 mi South 6.9 mph - -   Haze
12:00 PM 84.2 °F 35.6 °F 18% 29.98 in 3.1 mi Variable 5.8 mph - N/A   Haze
1:00 PM 86.0 °F 39.2 °F 19% 29.95 in 3.1 mi NNW 8.1 mph - N/A   Haze
2:00 PM 86.0 °F 37.4 °F 18% 29.92 in 3.1 mi WNW 9.2 mph - N/A   Haze
2:30 PM 86 °F 36 °F 9% 29.83 in 2 mi NW 6.9 mph - -   Haze
3:00 PM 86.0 °F 33.8 °F 15% 29.89 in 3.1 mi Variable 9.2 mph - N/A   Haze
4:00 PM 87.8 °F 35.6 °F 16% 29.86 in 3.1 mi Variable 10.4 mph 25.3 mph N/A   Haze
5:00 PM 86.0 °F 33.8 °F 15% 29.86 in 3.1 mi Variable 9.2 mph - N/A   Haze
5:30 PM 86 °F 37 °F 9% 29.77 in 2 mi NNW 6.9 mph - -   Haze
6:00 PM 84.2 °F 39.2 °F 20% 29.86 in 2.5 mi Variable 9.2 mph - N/A   Haze
7:00 PM 80.6 °F 41.0 °F 24% 29.86 in 2.5 mi Variable 9.2 mph - N/A   Haze
8:00 PM 80.6 °F 41.0 °F 24% 29.86 in 2.5 mi NW 5.8 mph - N/A   Haze
8:30 PM 79 °F 43 °F 18% 29.80 in 2 mi Calm Calm - -   Haze
9:00 PM 78.8 °F 42.8 °F 28% 29.89 in 2.5 mi Variable 6.9 mph - N/A   Haze
10:00 PM 77.0 °F 42.8 °F 29% 29.89 in 2.5 mi Variable 5.8 mph - N/A   Haze
11:30 PM 74 °F 46 °F 26% 29.82 in 1 mi NW 4.6 mph - -   Haze
11:30 PM 75.2 °F 42.8 °F 31% 29.89 in 1.9 mi NW 4.6 mph - N/A   Haze